[[{"header":{"parameterUnit":"m.s-1","parameterCategory":1,"la1":30.2991,"la2":30.254,"lo1":-89.0895,"lo2":-89.0444,"dy":0.0017,"dx":0.0017,"nx":28,"ny":28,"refTime":"2025-07-23T09:00:00:Z","depth":0,"parameterNumber":2,"parameterNumberName":"U-component_of_WINDS"},"data":[0,0,0,0,0,0,0,0,0,0,0,0,0,0,0,0,0,0,0,0,0,0,0,0,0,0,0,0,0,0,0,0,0,0,0,0,0,0,0,0,0,0,0,0,0,0,0,0,0,0,0,0,0,0,0,0,0,0,2.2015,2.2016,0,2.2113,2.2114,2.2115,2.2043,2.204,2.2037,2.2034,2.2135,2.2141,2.2146,0,0,0,0,0,0,0,0,0,0,0,0,0,2.1767,2.1772,2.2015,2.2016,2.2017,2.2112,2.2114,2.2115,2.2043,2.204,2.2036,2.2032,2.2133,2.214,2.2147,0,0,0,0,0,0,0,0,0,0,0,0,0,2.1871,2.1774,2.2014,2.1993,2.1992,2.2112,2.2114,2.2115,2.2044,2.2039,2.2035,2.203,2.2131,2.2139,2.2148,2.2295,0,0,2.2174,2.2177,0,0,0,0,0,0,0,0,2.1865,2.188,2.1995,2.1994,2.1994,2.2061,2.2064,2.2176,2.2045,2.2024,2.2033,2.2028,2.2114,2.2124,2.2153,2.23,2.2304,2.2174,2.218,2.2183,2.2186,0,0,0,0,0,0,0,2.1858,2.1876,2.2053,2.1996,2.1996,2.1979,2.1988,2.2085,2.2095,2.2026,2.2021,2.2033,2.2113,2.2145,2.2155,2.2306,2.2174,2.2182,2.2187,2.219,2.2581,2.2586,0,0,0,0,0,0,2.1853,2.187,2.205,2.2056,2.1916,2.1987,2.1998,2.2044,2.2094,2.2097,2.2037,2.203,2.2133,2.2145,2.2158,2.2335,2.2183,2.2191,2.2196,2.2575,2.2582,2.2588,0,0,0,0,0,0,2.1848,2.187,2.2046,2.1962,2.1983,2.1996,2.2049,2.2048,2.208,2.2102,2.2104,2.2068,2.2129,2.2146,2.2262,2.2338,2.2195,2.2203,2.2569,2.2577,2.2585,2.269,0,0,0,0,0,0,2.1841,2.1868,2.1924,2.1964,2.1988,2.2149,2.2054,2.2054,2.2095,2.2085,2.2131,2.2134,2.2127,2.225,2.227,2.2347,2.2209,2.2562,2.2573,2.2582,2.268,2.27,2.2718,0,0,0,0,0,2.1832,2.195,2.1927,2.1949,2.2058,2.2153,2.2167,2.2156,2.2101,2.2157,2.2172,2.2133,2.2326,2.2262,2.2285,2.2365,2.2558,2.257,2.2581,2.2671,2.2696,2.2718,0,0,0,0,0,0,2.1919,2.1954,2.193,2.2063,2.2106,2.2141,2.2211,2.2182,2.2241,2.2231,2.2215,2.2226,2.2348,2.2367,2.2296,2.2511,2.2433,2.245,2.2494,2.2518,2.2537,2.253,2.2216,0,0,0,0,0,2.1953,2.2027,2.2054,2.2169,2.2192,2.2198,2.2239,2.2227,2.227,2.2288,2.2311,2.2355,2.2426,2.2473,2.2539,2.2682,2.2692,2.2748,2.2767,2.2783,2.2798,2.2877,2.2903,2.2626,2.2626,2.2626,0,0,2.2025,2.2054,2.2101,2.2187,2.2219,2.2296,2.2214,2.2299,2.2357,2.2301,2.2412,2.2431,2.2479,2.261,2.2668,2.263,2.2877,2.2798,2.2811,2.2817,2.2892,2.2918,2.2942,2.2635,2.2633,2.2632,0,0,2.2196,2.2225,2.2325,2.2358,2.2406,2.241,2.2434,2.2474,2.2484,2.2595,2.2555,2.2624,2.2746,2.2782,2.2817,2.3003,2.297,2.3025,2.3126,2.3203,2.3225,2.3244,2.3312,2.3336,2.304,2.304,2.304,0,2.228,2.2395,2.238,2.2469,2.2508,2.2461,2.2563,2.2596,2.2664,2.2692,2.2648,2.2801,2.283,2.2969,2.3015,2.3044,2.3072,2.302,2.3222,2.3242,2.3259,2.3324,2.335,2.3046,2.3046,2.3045,2.3044,0,2.2496,2.2577,2.2651,2.2718,2.2766,2.2861,2.2861,2.2911,2.2895,2.2904,2.3018,2.3052,2.3124,2.3156,2.3141,2.3294,2.3269,2.3224,2.3146,2.3293,2.3353,2.3378,2.3056,2.3053,2.3052,2.305,0,0,2.2725,2.2782,2.281,2.2841,2.2891,2.2953,2.3046,2.3117,2.3161,2.321,2.3288,2.3393,2.3352,2.3391,2.338,2.3447,2.3595,2.3394,2.3395,2.3432,2.3768,2.3802,2.3831,2.3573,2.3577,2.3581,2.3764,0,2.29,2.3062,2.3051,2.3204,2.3279,2.3235,2.3316,2.3357,2.3367,2.3433,2.3445,2.352,2.3459,2.3483,2.3548,2.3563,2.3662,2.355,2.3647,2.3651,2.3638,2.3862,2.3899,2.407,2.3787,2.3791,2.3794,0,2.3126,2.3182,2.3343,2.3383,2.3414,2.3487,2.3552,2.3614,2.366,2.3663,2.3707,2.3685,2.378,2.3699,2.383,2.3754,2.3793,2.3807,2.3813,2.3823,2.3732,2.3879,2.4124,2.415,2.3831,2.3828,2.3825,0,2.3279,2.3394,2.3506,2.3533,2.3582,2.3635,2.3658,2.3698,2.3742,2.3798,2.3827,2.3894,2.3931,2.3984,2.3981,2.3922,2.4116,2.4034,2.4122,2.4123,2.4166,2.4164,2.4422,2.4189,2.4189,2.4188,2.4188,0,2.3476,2.3576,2.3575,2.3644,2.3755,2.3742,2.3853,2.387,2.3907,2.3978,2.3945,2.4013,2.4004,2.4073,2.4072,2.4182,2.4199,2.4205,2.4203,2.4209,2.4208,2.4235,2.4224,2.4195,2.4194,2.4192,2.4191,0,2.3666,2.3669,2.3787,2.3824,2.3836,2.3917,2.3949,2.4014,2.4022,2.4113,2.4134,2.4147,2.4227,2.4229,2.432,2.4319,2.4454,2.4438,2.4439,2.4436,2.4525,2.4518,2.4811,2.4849,2.4591,2.4593,2.4595,0,2.3792,2.3868,2.3913,2.3959,2.3985,2.4059,2.4103,2.4094,2.4142,2.42,2.4259,2.4335,2.4396,2.4525,2.4543,2.4613,2.46,2.4698,2.4611,2.4614,2.4604,2.46,2.4608,2.4716,2.4719,2.4721,2.4723,0,2.4016,2.4014,2.4079,2.4146,2.42,2.4252,2.43,2.4339,2.4335,2.4391,2.4472,2.4519,2.4613,2.469,2.4758,2.4782,2.4753,2.475,2.4775,2.4782,2.4779,2.4783,2.4487,2.4744,2.4742,2.474,2.4739,2.4738,2.4179,2.4245,2.4288,2.4362,2.4397,2.4443,2.4507,2.4522,2.459,2.4665,2.4655,2.4746,2.479,2.4879,2.4909,2.498,2.4947,2.4982,2.4991,2.5,2.5011,2.4767,2.4993,2.4992,2.4991,2.4991,2.4991,0,2.4403,2.4428,2.4497,2.4565,2.4624,2.459,2.4641,2.4693,2.4773,2.4817,2.4877,2.4971,2.5046,2.507,2.5143,2.5195,2.5184,2.5215,2.5212,2.5218,2.5036,2.5008,2.5223,2.5223,2.5223,2.5223,2.5223,2.5223,2.4527,2.4637,2.464,2.4768,2.4793,2.4881,2.4914,2.4956,2.4991,2.5097,2.5159,2.5174,2.521,2.5286,2.5353,2.5358,2.5387,2.5424,2.5425,2.5254,2.5231,2.5208,2.5182,2.543,2.5431,2.5601,2.5602,2.5604]},{"header":{"parameterUnit":"m.s-1","parameterCategory":1,"la1":30.2991,"la2":30.254,"lo1":-89.0895,"lo2":-89.0444,"dy":0.0017,"dx":0.0017,"nx":28,"ny":28,"refTime":"2025-07-23T09:00:00:Z","depth":0,"parameterNumber":3,"parameterNumberName":"V-component_of_WINDS"},"data":[0,0,0,0,0,0,0,0,0,0,0,0,0,0,0,0,0,0,0,0,0,0,0,0,0,0,0,0,0,0,0,0,0,0,0,0,0,0,0,0,0,0,0,0,0,0,0,0,0,0,0,0,0,0,0,0,0,0,0.573,0.573,0,0.5675,0.5674,0.5673,0.5594,0.5593,0.5591,0.559,0.5534,0.5534,0.5534,0,0,0,0,0,0,0,0,0,0,0,0,0,0.5769,0.5769,0.5731,0.573,0.5729,0.5675,0.5674,0.5673,0.5594,0.5592,0.5591,0.5589,0.5534,0.5534,0.5534,0,0,0,0,0,0,0,0,0,0,0,0,0,0.5737,0.5769,0.5731,0.5683,0.5678,0.5675,0.5674,0.5673,0.5594,0.5592,0.559,0.5588,0.5534,0.5534,0.5534,0.5573,0,0,0.5533,0.5533,0,0,0,0,0,0,0,0,0.5739,0.5736,0.5691,0.5686,0.5681,0.5639,0.5667,0.564,0.5595,0.5626,0.559,0.5587,0.5571,0.5567,0.5561,0.557,0.5568,0.5533,0.5533,0.5532,0.5532,0,0,0,0,0,0,0,0.5741,0.5738,0.5708,0.569,0.5684,0.5665,0.5658,0.5662,0.5611,0.5623,0.5618,0.5612,0.5568,0.5562,0.556,0.5567,0.5533,0.5533,0.5532,0.5532,0.5605,0.5607,0,0,0,0,0,0,0.575,0.574,0.571,0.5707,0.5705,0.5666,0.5658,0.5655,0.5611,0.5602,0.5614,0.5608,0.5564,0.556,0.5557,0.56,0.5532,0.5532,0.5532,0.5603,0.5605,0.5607,0,0,0,0,0,0,0.5752,0.5749,0.5712,0.5722,0.5716,0.5667,0.5664,0.5655,0.5649,0.5603,0.5594,0.5617,0.5562,0.5558,0.5569,0.5597,0.5532,0.5532,0.56,0.5603,0.5606,0.5686,0,0,0,0,0,0,0.5753,0.5749,0.5764,0.5723,0.5715,0.5726,0.5666,0.5655,0.5648,0.5641,0.5604,0.5596,0.556,0.557,0.5569,0.5595,0.5532,0.5597,0.5602,0.5605,0.5681,0.5692,0.5701,0,0,0,0,0,0.5755,0.5789,0.5765,0.5762,0.5732,0.5727,0.5723,0.5681,0.5651,0.5665,0.5635,0.5597,0.5594,0.5572,0.557,0.5597,0.5595,0.56,0.5605,0.5677,0.569,0.5701,0,0,0,0,0,0,0.5836,0.5783,0.5756,0.5778,0.5757,0.5714,0.573,0.5696,0.5685,0.5678,0.5626,0.5618,0.5637,0.5618,0.5594,0.5632,0.5589,0.5594,0.5644,0.5656,0.5666,0.5671,0.5531,0,0,0,0,0,0.5856,0.5856,0.581,0.5834,0.5825,0.578,0.5776,0.5745,0.5722,0.5713,0.5685,0.5665,0.5659,0.5656,0.5649,0.5678,0.5668,0.5695,0.5705,0.5713,0.5718,0.5732,0.5743,0.5623,0.5623,0.5623,0,0,0.5898,0.5869,0.5872,0.5849,0.583,0.5831,0.5773,0.5777,0.5778,0.5714,0.5723,0.5701,0.5675,0.5696,0.5703,0.5681,0.5749,0.5719,0.5726,0.5727,0.5738,0.5749,0.5759,0.5626,0.5626,0.5625,0,0,0.5975,0.5954,0.5971,0.5952,0.5924,0.5893,0.5897,0.5859,0.5842,0.585,0.5802,0.5802,0.5793,0.5777,0.5767,0.5837,0.5801,0.5836,0.5889,0.5903,0.5912,0.592,0.5945,0.5955,0.5841,0.5841,0.5841,0,0.6032,0.6031,0.5984,0.5991,0.5982,0.5924,0.5941,0.5925,0.5896,0.5891,0.5866,0.5853,0.5832,0.5847,0.5864,0.5858,0.5862,0.584,0.5914,0.5922,0.5929,0.5952,0.5962,0.5845,0.5845,0.5844,0.5844,0,0.6102,0.6102,0.612,0.6092,0.6085,0.6097,0.6052,0.6051,0.602,0.5992,0.6001,0.5972,0.5958,0.5959,0.5929,0.597,0.5957,0.5924,0.5879,0.5946,0.5967,0.5975,0.5852,0.585,0.5849,0.5848,0,0,0.623,0.6175,0.6182,0.6169,0.6132,0.6132,0.6141,0.6126,0.6126,0.6107,0.6114,0.6107,0.6076,0.6065,0.6033,0.6045,0.6102,0.601,0.6009,0.6028,0.6145,0.6171,0.6182,0.6078,0.6079,0.6081,0.6148,0,0.63,0.6313,0.627,0.6293,0.6293,0.6237,0.6245,0.6224,0.6198,0.6194,0.6165,0.6162,0.6121,0.6114,0.6123,0.6093,0.6125,0.6088,0.6084,0.6084,0.6093,0.6193,0.622,0.6285,0.6155,0.6157,0.6158,0,0.6385,0.637,0.6393,0.6355,0.6353,0.6361,0.6343,0.634,0.6315,0.6295,0.6283,0.6245,0.6251,0.6208,0.6216,0.6192,0.6187,0.6172,0.6174,0.6172,0.6126,0.6195,0.6304,0.6314,0.617,0.6169,0.6168,0,0.6476,0.6462,0.6473,0.6464,0.6419,0.6426,0.6408,0.638,0.6374,0.6358,0.6353,0.6339,0.6332,0.6322,0.6281,0.6254,0.6294,0.6248,0.6278,0.6279,0.629,0.629,0.6401,0.6286,0.6286,0.6286,0.6286,0,0.6559,0.6576,0.6514,0.6521,0.6538,0.6489,0.6507,0.6483,0.6459,0.646,0.6411,0.6414,0.636,0.6357,0.6325,0.6336,0.6333,0.6317,0.6309,0.6322,0.6324,0.6319,0.6314,0.6289,0.6288,0.6287,0.6287,0,0.6664,0.6623,0.6633,0.6589,0.6579,0.6593,0.6556,0.6561,0.6532,0.6535,0.6532,0.6486,0.648,0.6438,0.6423,0.6401,0.6424,0.6407,0.6433,0.6427,0.646,0.6458,0.6572,0.6585,0.6462,0.6464,0.6465,0,0.6721,0.6732,0.669,0.6687,0.6671,0.6668,0.666,0.6612,0.6607,0.6578,0.6587,0.6576,0.6565,0.6558,0.6523,0.6511,0.6492,0.6533,0.649,0.6503,0.6493,0.6493,0.6494,0.6543,0.6545,0.6546,0.6547,0,0.6825,0.6804,0.6795,0.678,0.6772,0.6758,0.674,0.6741,0.6687,0.6684,0.6676,0.6668,0.6651,0.6642,0.6623,0.6604,0.6567,0.656,0.6567,0.6581,0.6596,0.6588,0.6458,0.6558,0.6557,0.6556,0.6556,0.6555,0.6907,0.6915,0.6886,0.6878,0.6859,0.6844,0.6846,0.6817,0.681,0.6792,0.6764,0.6761,0.6734,0.6705,0.6689,0.6686,0.6664,0.6673,0.6676,0.6679,0.6686,0.6596,0.6682,0.6682,0.6681,0.6681,0.6681,0,0.7009,0.6988,0.6981,0.6957,0.6951,0.6915,0.6894,0.6891,0.6889,0.6867,0.6857,0.6848,0.6838,0.6802,0.6788,0.6793,0.6775,0.6791,0.679,0.6786,0.6706,0.6702,0.6805,0.6805,0.6805,0.6805,0.6805,0.6805,0.7062,0.7072,0.7047,0.7048,0.7026,0.7022,0.7013,0.6998,0.698,0.6973,0.6964,0.694,0.6913,0.6896,0.6886,0.6875,0.6873,0.6894,0.6878,0.6804,0.6792,0.6781,0.6777,0.6894,0.6894,0.6959,0.696,0.696]}]]